Year,Month,Day,Hour,Minute,Value (Times are PST for temperature in C)
2006,07,23,00,00,23.10
2006,07,23,00,01,23.10
2006,07,23,00,02,23.10
2006,07,23,00,03,23.10
2006,07,23,00,04,23.00
2006,07,23,00,05,22.90
2006,07,23,00,06,22.90
2006,07,23,00,07,22.90
2006,07,23,00,08,22.90
2006,07,23,00,09,22.90
2006,07,23,00,10,22.90
2006,07,23,00,11,22.90
2006,07,23,00,12,22.80
2006,07,23,00,13,22.80
2006,07,23,00,14,22.80
2006,07,23,00,15,22.80
2006,07,23,00,16,22.80
2006,07,23,00,17,22.80
2006,07,23,00,18,22.70
2006,07,23,00,19,22.70
2006,07,23,00,20,22.70
2006,07,23,00,21,22.60
2006,07,23,00,22,22.60
2006,07,23,00,23,22.60
2006,07,23,00,24,22.50
2006,07,23,00,25,22.50
2006,07,23,00,26,22.50
2006,07,23,00,27,22.50
2006,07,23,00,28,22.50
2006,07,23,00,29,22.50
2006,07,23,00,30,22.50
2006,07,23,00,31,22.50
2006,07,23,00,32,22.50
2006,07,23,00,33,22.40
2006,07,23,00,34,22.40
2006,07,23,00,35,22.40
2006,07,23,00,36,22.40
2006,07,23,00,37,22.40
2006,07,23,00,38,22.40
2006,07,23,00,39,22.40
2006,07,23,00,40,22.40
2006,07,23,00,41,22.40
2006,07,23,00,42,22.40
2006,07,23,00,43,22.30
2006,07,23,00,44,22.30
2006,07,23,00,45,22.30
2006,07,23,00,46,22.20
2006,07,23,00,47,22.20
2006,07,23,00,48,22.20
2006,07,23,00,49,22.10
2006,07,23,00,50,22.10
2006,07,23,00,51,22.00
2006,07,23,00,52,22.00
2006,07,23,00,53,22.00
2006,07,23,00,54,21.90
2006,07,23,00,55,21.90
2006,07,23,00,56,21.90
2006,07,23,00,57,21.90
2006,07,23,00,58,21.80
2006,07,23,00,59,21.80
2006,07,23,01,00,21.80
2006,07,23,01,01,21.80
2006,07,23,01,02,21.80
2006,07,23,01,03,21.80
2006,07,23,01,04,21.80
2006,07,23,01,05,21.70
2006,07,23,01,06,21.70
2006,07,23,01,07,21.70
2006,07,23,01,08,21.70
2006,07,23,01,09,21.70
2006,07,23,01,10,21.60
2006,07,23,01,11,21.60
2006,07,23,01,12,21.60
2006,07,23,01,13,21.60
2006,07,23,01,14,21.60
2006,07,23,01,15,21.60
2006,07,23,01,16,21.60
2006,07,23,01,17,21.60
2006,07,23,01,18,21.60
2006,07,23,01,19,21.50
2006,07,23,01,20,21.40
2006,07,23,01,21,21.40
2006,07,23,01,22,21.40
2006,07,23,01,23,21.40
2006,07,23,01,24,21.30
2006,07,23,01,25,21.30
2006,07,23,01,26,21.30
2006,07,23,01,27,21.30
2006,07,23,01,28,21.30
2006,07,23,01,29,21.30
2006,07,23,01,30,21.30
2006,07,23,01,31,21.30
2006,07,23,01,32,21.30
2006,07,23,01,33,21.30
2006,07,23,01,34,21.30
2006,07,23,01,35,21.30
2006,07,23,01,36,21.30
2006,07,23,01,37,21.30
2006,07,23,01,38,21.30
2006,07,23,01,39,21.30
2006,07,23,01,40,21.30
2006,07,23,01,41,21.20
2006,07,23,01,42,21.20
2006,07,23,01,43,21.20
2006,07,23,01,44,21.20
2006,07,23,01,45,21.20
2006,07,23,01,46,21.20
2006,07,23,01,47,21.20
2006,07,23,01,48,21.20
2006,07,23,01,49,21.20
2006,07,23,01,50,21.20
2006,07,23,01,51,21.20
2006,07,23,01,52,21.20
2006,07,23,01,53,21.20
2006,07,23,01,54,21.20
2006,07,23,01,55,21.20
2006,07,23,01,56,21.20
2006,07,23,01,57,21.20
2006,07,23,01,58,21.20
2006,07,23,01,59,21.20
2006,07,23,02,00,21.10
2006,07,23,02,01,21.10
2006,07,23,02,02,21.10
2006,07,23,02,03,21.10
2006,07,23,02,04,21.10
2006,07,23,02,05,21.10
2006,07,23,02,06,21.10
2006,07,23,02,07,21.10
2006,07,23,02,08,21.10
2006,07,23,02,09,21.10
2006,07,23,02,10,21.10
2006,07,23,02,11,21.10
2006,07,23,02,12,21.10
2006,07,23,02,13,21.10
2006,07,23,02,14,21.10
2006,07,23,02,15,21.10
2006,07,23,02,16,21.10
2006,07,23,02,17,21.10
2006,07,23,02,18,21.10
2006,07,23,02,19,21.10
2006,07,23,02,20,21.10
2006,07,23,02,21,21.10
2006,07,23,02,22,21.10
2006,07,23,02,23,21.10
2006,07,23,02,24,21.10
2006,07,23,02,25,21.00
2006,07,23,02,26,21.00
2006,07,23,02,27,21.00
2006,07,23,02,28,21.00
2006,07,23,02,29,21.00
2006,07,23,02,30,21.00
2006,07,23,02,31,21.00
2006,07,23,02,32,21.00
2006,07,23,02,33,21.00
2006,07,23,02,34,21.00
2006,07,23,02,35,21.00
2006,07,23,02,36,21.00
2006,07,23,02,37,21.00
2006,07,23,02,38,21.00
2006,07,23,02,39,21.00
2006,07,23,02,40,21.00
2006,07,23,02,41,21.00
2006,07,23,02,42,21.00
2006,07,23,02,43,21.00
2006,07,23,02,44,21.00
2006,07,23,02,45,21.00
2006,07,23,02,46,21.00
2006,07,23,02,47,21.00
2006,07,23,02,48,21.00
2006,07,23,02,49,21.10
2006,07,23,02,50,21.10
2006,07,23,02,51,21.10
2006,07,23,02,52,21.10
2006,07,23,02,53,21.10
2006,07,23,02,54,21.10
2006,07,23,02,55,21.10
2006,07,23,02,56,21.10
2006,07,23,02,57,21.10
2006,07,23,02,58,21.10
2006,07,23,02,59,21.10
2006,07,23,03,00,21.10
2006,07,23,03,01,21.10
2006,07,23,03,02,21.00
2006,07,23,03,03,21.00
2006,07,23,03,04,21.00
2006,07,23,03,05,21.00
2006,07,23,03,06,21.00
2006,07,23,03,07,21.00
2006,07,23,03,08,20.90
2006,07,23,03,09,20.90
2006,07,23,03,10,20.90
2006,07,23,03,11,20.90
2006,07,23,03,12,20.80
2006,07,23,03,13,20.80
2006,07,23,03,14,20.80
2006,07,23,03,15,20.80
2006,07,23,03,16,20.70
2006,07,23,03,17,20.70
2006,07,23,03,18,20.70
2006,07,23,03,19,20.70
2006,07,23,03,20,20.70
2006,07,23,03,21,20.60
2006,07,23,03,22,20.60
2006,07,23,03,23,20.60
2006,07,23,03,24,20.60
2006,07,23,03,25,20.50
2006,07,23,03,26,20.50
2006,07,23,03,27,20.50
2006,07,23,03,28,20.50
2006,07,23,03,29,20.40
2006,07,23,03,30,20.40
2006,07,23,03,31,20.40
2006,07,23,03,32,20.40
2006,07,23,03,33,20.30
2006,07,23,03,34,20.30
2006,07,23,03,35,20.30
2006,07,23,03,36,20.30
2006,07,23,03,37,20.20
2006,07,23,03,38,20.20
2006,07,23,03,39,20.20
2006,07,23,03,40,20.20
2006,07,23,03,41,20.20
2006,07,23,03,42,20.20
2006,07,23,03,43,20.10
2006,07,23,03,44,20.10
2006,07,23,03,45,20.00
2006,07,23,03,46,19.90
2006,07,23,03,47,19.90
2006,07,23,03,48,19.90
2006,07,23,03,49,19.90
2006,07,23,03,50,19.90
2006,07,23,03,51,19.90
2006,07,23,03,52,19.90
2006,07,23,03,53,19.80
2006,07,23,03,54,19.80
2006,07,23,03,55,19.80
2006,07,23,03,56,19.80
2006,07,23,03,57,19.80
2006,07,23,03,58,19.80
2006,07,23,03,59,19.80
2006,07,23,04,00,19.80
2006,07,23,04,01,19.80
2006,07,23,04,02,19.80
2006,07,23,04,03,19.80
2006,07,23,04,04,19.80
2006,07,23,04,05,19.80
2006,07,23,04,06,19.80
2006,07,23,04,07,19.80
2006,07,23,04,08,19.80
2006,07,23,04,09,19.80
2006,07,23,04,10,19.80
2006,07,23,04,11,19.80
2006,07,23,04,12,19.80
2006,07,23,04,13,19.80
2006,07,23,04,14,19.80
2006,07,23,04,15,19.80
2006,07,23,04,16,19.80
2006,07,23,04,17,19.80
2006,07,23,04,18,19.80
2006,07,23,04,19,19.80
2006,07,23,04,20,19.80
2006,07,23,04,21,19.70
2006,07,23,04,22,19.70
2006,07,23,04,23,19.70
2006,07,23,04,24,19.70
2006,07,23,04,25,19.70
2006,07,23,04,26,19.70
2006,07,23,04,27,19.70
2006,07,23,04,28,19.60
2006,07,23,04,29,19.60
2006,07,23,04,30,19.60
2006,07,23,04,31,19.60
2006,07,23,04,32,19.60
2006,07,23,04,33,19.60
2006,07,23,04,34,19.50
2006,07,23,04,35,19.50
2006,07,23,04,36,19.50
2006,07,23,04,37,19.50
2006,07,23,04,38,19.40
2006,07,23,04,39,19.40
2006,07,23,04,40,19.40
2006,07,23,04,41,19.30
2006,07,23,04,42,19.30
2006,07,23,04,43,19.30
2006,07,23,04,44,19.20
2006,07,23,04,45,19.20
2006,07,23,04,46,19.20
2006,07,23,04,47,19.10
2006,07,23,04,48,19.10
2006,07,23,04,49,19.10
2006,07,23,04,50,19.10
2006,07,23,04,51,19.10
2006,07,23,04,52,19.10
2006,07,23,04,53,19.10
2006,07,23,04,54,19.10
2006,07,23,04,55,19.10
2006,07,23,04,56,19.10
2006,07,23,04,57,19.10
2006,07,23,04,58,19.10
2006,07,23,04,59,19.10
2006,07,23,05,00,19.10
2006,07,23,05,01,19.10
2006,07,23,05,02,19.10
2006,07,23,05,03,19.10
2006,07,23,05,04,19.10
2006,07,23,05,05,19.10
2006,07,23,05,06,19.10
2006,07,23,05,07,19.10
2006,07,23,05,08,19.10
2006,07,23,05,09,19.00
2006,07,23,05,10,18.90
2006,07,23,05,11,18.90
2006,07,23,05,12,18.90
2006,07,23,05,13,18.90
2006,07,23,05,14,18.90
2006,07,23,05,15,19.10
2006,07,23,05,16,19.10
2006,07,23,05,17,19.10
2006,07,23,05,18,19.00
2006,07,23,05,19,19.00
2006,07,23,05,20,18.90
2006,07,23,05,21,18.90
2006,07,23,05,22,18.90
2006,07,23,05,23,18.90
2006,07,23,05,24,18.90
2006,07,23,05,25,18.90
2006,07,23,05,26,18.90
2006,07,23,05,27,18.90
2006,07,23,05,28,18.90
2006,07,23,05,29,18.90
2006,07,23,05,30,18.90
2006,07,23,05,31,18.90
2006,07,23,05,32,18.90
2006,07,23,05,33,18.90
2006,07,23,05,34,18.80
2006,07,23,05,35,18.80
2006,07,23,05,36,18.80
2006,07,23,05,37,18.80
2006,07,23,05,38,18.80
2006,07,23,05,39,18.80
2006,07,23,05,40,18.80
2006,07,23,05,41,18.80
2006,07,23,05,42,18.80
2006,07,23,05,43,18.80
2006,07,23,05,44,18.80
2006,07,23,05,45,18.80
2006,07,23,05,46,18.80
2006,07,23,05,47,18.80
2006,07,23,05,48,18.80
2006,07,23,05,49,18.80
2006,07,23,05,50,18.80
2006,07,23,05,51,18.80
2006,07,23,05,52,18.80
2006,07,23,05,53,18.80
2006,07,23,05,54,18.80
2006,07,23,05,55,18.80
2006,07,23,05,56,18.80
2006,07,23,05,57,18.80
2006,07,23,05,58,18.80
2006,07,23,05,59,18.80
2006,07,23,06,00,18.90
2006,07,23,06,01,18.90
2006,07,23,06,02,18.90
2006,07,23,06,03,18.90
2006,07,23,06,04,19.00
2006,07,23,06,05,19.10
2006,07,23,06,06,19.10
2006,07,23,06,07,19.10
2006,07,23,06,08,19.10
2006,07,23,06,09,19.10
2006,07,23,06,10,19.20
2006,07,23,06,11,19.20
2006,07,23,06,12,19.30
2006,07,23,06,13,19.30
2006,07,23,06,14,19.40
2006,07,23,06,15,19.40
2006,07,23,06,16,19.50
2006,07,23,06,17,19.50
2006,07,23,06,18,19.60
2006,07,23,06,19,19.60
2006,07,23,06,20,19.60
2006,07,23,06,21,19.70
2006,07,23,06,22,19.70
2006,07,23,06,23,19.70
2006,07,23,06,24,19.80
2006,07,23,06,25,19.90
2006,07,23,06,26,19.90
2006,07,23,06,27,20.00
2006,07,23,06,28,20.10
2006,07,23,06,29,20.20
2006,07,23,06,30,20.20
2006,07,23,06,31,20.20
2006,07,23,06,32,20.20
2006,07,23,06,33,20.20
2006,07,23,06,34,20.30
2006,07,23,06,35,20.30
2006,07,23,06,36,20.30
2006,07,23,06,37,20.30
2006,07,23,06,38,20.40
2006,07,23,06,39,20.40
2006,07,23,06,40,20.50
2006,07,23,06,41,20.60
2006,07,23,06,42,20.60
2006,07,23,06,43,20.60
2006,07,23,06,44,20.70
2006,07,23,06,45,20.70
2006,07,23,06,46,20.80
2006,07,23,06,47,20.80
2006,07,23,06,48,20.90
2006,07,23,06,49,20.90
2006,07,23,06,50,21.00
2006,07,23,06,51,21.10
2006,07,23,06,52,21.10
2006,07,23,06,53,21.20
2006,07,23,06,54,21.30
2006,07,23,06,55,21.30
2006,07,23,06,56,21.30
2006,07,23,06,57,21.40
2006,07,23,06,58,21.60
2006,07,23,06,59,21.70
2006,07,23,07,00,21.80
2006,07,23,07,01,22.00
2006,07,23,07,02,22.10
2006,07,23,07,03,22.20
2006,07,23,07,04,22.30
2006,07,23,07,05,22.40
2006,07,23,07,06,22.50
2006,07,23,07,07,22.60
2006,07,23,07,08,22.60
2006,07,23,07,09,22.70
2006,07,23,07,10,22.80
2006,07,23,07,11,22.90
2006,07,23,07,12,23.00
2006,07,23,07,13,23.10
2006,07,23,07,14,23.10
2006,07,23,07,15,23.20
2006,07,23,07,16,23.20
2006,07,23,07,17,23.30
2006,07,23,07,18,23.30
2006,07,23,07,19,23.30
2006,07,23,07,20,23.30
2006,07,23,07,21,23.30
2006,07,23,07,22,23.30
2006,07,23,07,23,23.30
2006,07,23,07,24,23.30
2006,07,23,07,25,23.30
2006,07,23,07,26,23.30
2006,07,23,07,27,23.30
2006,07,23,07,28,23.30
2006,07,23,07,29,23.30
2006,07,23,07,30,23.30
2006,07,23,07,31,23.30
2006,07,23,07,32,23.30
2006,07,23,07,33,23.40
2006,07,23,07,34,23.40
2006,07,23,07,35,23.40
2006,07,23,07,36,23.60
2006,07,23,07,37,23.60
2006,07,23,07,38,23.50
2006,07,23,07,39,23.40
2006,07,23,07,40,23.40
2006,07,23,07,41,23.40
2006,07,23,07,42,23.40
2006,07,23,07,43,23.40
2006,07,23,07,44,23.50
2006,07,23,07,45,23.60
2006,07,23,07,46,23.70
2006,07,23,07,47,23.70
2006,07,23,07,48,23.80
2006,07,23,07,49,23.90
2006,07,23,07,50,24.00
2006,07,23,07,51,24.10
2006,07,23,07,52,24.20
2006,07,23,07,53,24.30
2006,07,23,07,54,24.30
2006,07,23,07,55,24.40
2006,07,23,07,56,24.40
2006,07,23,07,57,24.30
2006,07,23,07,58,24.30
2006,07,23,07,59,24.30
2006,07,23,08,00,24.40
2006,07,23,08,01,24.40
2006,07,23,08,02,24.40
2006,07,23,08,03,24.40
2006,07,23,08,04,24.40
2006,07,23,08,05,24.40
2006,07,23,08,06,24.40
2006,07,23,08,07,24.40
2006,07,23,08,08,24.50
2006,07,23,08,09,24.50
2006,07,23,08,10,24.50
2006,07,23,08,11,24.50
2006,07,23,08,12,24.50
2006,07,23,08,13,24.40
2006,07,23,08,14,24.40
2006,07,23,08,15,24.40
2006,07,23,08,16,24.40
2006,07,23,08,17,24.50
2006,07,23,08,18,24.50
2006,07,23,08,19,24.50
2006,07,23,08,20,24.60
2006,07,23,08,21,24.60
2006,07,23,08,22,24.60
2006,07,23,08,23,24.70
2006,07,23,08,24,24.60
2006,07,23,08,25,24.60
2006,07,23,08,26,24.60
2006,07,23,08,27,24.50
2006,07,23,08,28,24.50
2006,07,23,08,29,24.50
2006,07,23,08,30,24.50
2006,07,23,08,31,24.50
2006,07,23,08,32,24.50
2006,07,23,08,33,24.50
2006,07,23,08,34,24.50
2006,07,23,08,35,24.60
2006,07,23,08,36,24.60
2006,07,23,08,37,24.60
2006,07,23,08,38,24.60
2006,07,23,08,39,24.70
2006,07,23,08,40,24.60
2006,07,23,08,41,24.60
2006,07,23,08,42,24.60
2006,07,23,08,43,24.60
2006,07,23,08,44,24.60
2006,07,23,08,45,24.60
2006,07,23,08,46,24.70
2006,07,23,08,47,24.70
2006,07,23,08,48,24.80
2006,07,23,08,49,24.80
2006,07,23,08,50,24.80
2006,07,23,08,51,24.90
2006,07,23,08,52,24.90
2006,07,23,08,53,24.90
2006,07,23,08,54,24.90
2006,07,23,08,55,24.90
2006,07,23,08,56,24.90
2006,07,23,08,57,24.90
2006,07,23,08,58,24.90
2006,07,23,08,59,24.90
2006,07,23,09,00,24.90
2006,07,23,09,01,24.90
2006,07,23,09,02,24.90
2006,07,23,09,03,25.00
2006,07,23,09,04,25.00
2006,07,23,09,05,25.00
2006,07,23,09,06,25.00
2006,07,23,09,07,25.10
2006,07,23,09,08,25.10
2006,07,23,09,09,25.10
2006,07,23,09,10,25.10
2006,07,23,09,11,25.10
2006,07,23,09,12,25.20
2006,07,23,09,13,25.20
2006,07,23,09,14,25.30
2006,07,23,09,15,25.30
2006,07,23,09,16,25.30
2006,07,23,09,17,25.40
2006,07,23,09,18,25.30
2006,07,23,09,19,25.30
2006,07,23,09,20,25.30
2006,07,23,09,21,25.20
2006,07,23,09,22,25.20
2006,07,23,09,23,25.30
2006,07,23,09,24,25.30
2006,07,23,09,25,25.30
2006,07,23,09,26,25.30
2006,07,23,09,27,25.40
2006,07,23,09,28,25.40
2006,07,23,09,29,25.50
2006,07,23,09,30,25.50
2006,07,23,09,31,25.50
2006,07,23,09,32,25.60
2006,07,23,09,33,25.60
2006,07,23,09,34,25.60
2006,07,23,09,35,25.60
2006,07,23,09,36,25.70
2006,07,23,09,37,25.70
2006,07,23,09,38,25.60
2006,07,23,09,39,25.60
2006,07,23,09,40,25.60
2006,07,23,09,41,25.70
2006,07,23,09,42,25.60
2006,07,23,09,43,25.60
2006,07,23,09,44,25.60
2006,07,23,09,45,25.60
2006,07,23,09,46,25.60
2006,07,23,09,47,25.60
2006,07,23,09,48,25.60
2006,07,23,09,49,25.70
2006,07,23,09,50,25.70
2006,07,23,09,51,25.80
2006,07,23,09,52,25.80
2006,07,23,09,53,25.80
2006,07,23,09,54,25.80
2006,07,23,09,55,25.80
2006,07,23,09,56,25.80
2006,07,23,09,57,25.80
2006,07,23,09,58,25.80
2006,07,23,09,59,25.80
2006,07,23,10,00,25.90
2006,07,23,10,01,25.90
2006,07,23,10,02,25.90
2006,07,23,10,03,25.90
2006,07,23,10,04,25.90
2006,07,23,10,05,25.80
2006,07,23,10,06,25.80
2006,07,23,10,07,25.80
2006,07,23,10,08,25.80
2006,07,23,10,09,25.80
2006,07,23,10,10,25.90
2006,07,23,10,11,25.90
2006,07,23,10,12,25.90
2006,07,23,10,13,26.00
2006,07,23,10,14,26.10
2006,07,23,10,15,26.10
2006,07,23,10,16,26.10
2006,07,23,10,17,26.20
2006,07,23,10,18,26.20
2006,07,23,10,19,26.20
2006,07,23,10,20,26.20
2006,07,23,10,21,26.30
2006,07,23,10,22,26.20
2006,07,23,10,23,26.30
2006,07,23,10,24,26.30
2006,07,23,10,25,26.20
2006,07,23,10,26,26.20
2006,07,23,10,27,26.20
2006,07,23,10,28,26.30
2006,07,23,10,29,26.30
2006,07,23,10,30,26.30
2006,07,23,10,31,26.30
2006,07,23,10,32,26.40
2006,07,23,10,33,26.40
2006,07,23,10,34,26.40
2006,07,23,10,35,26.50
2006,07,23,10,36,26.60
2006,07,23,10,37,26.60
2006,07,23,10,38,26.70
2006,07,23,10,39,26.70
2006,07,23,10,40,26.80
2006,07,23,10,41,26.80
2006,07,23,10,42,26.90
2006,07,23,10,43,26.90
2006,07,23,10,44,26.90
2006,07,23,10,45,26.90
2006,07,23,10,46,26.90
2006,07,23,10,47,26.90
2006,07,23,10,48,26.80
2006,07,23,10,49,26.80
2006,07,23,10,50,26.80
2006,07,23,10,51,26.80
2006,07,23,10,52,26.80
2006,07,23,10,53,26.70
2006,07,23,10,54,26.70
2006,07,23,10,55,26.70
2006,07,23,10,56,26.70
2006,07,23,10,57,26.80
2006,07,23,10,58,26.80
2006,07,23,10,59,26.90
2006,07,23,11,00,27.00
2006,07,23,11,01,27.10
2006,07,23,11,02,27.20
2006,07,23,11,03,27.20
2006,07,23,11,04,27.20
2006,07,23,11,05,27.20
2006,07,23,11,06,27.20
2006,07,23,11,07,27.30
2006,07,23,11,08,27.30
2006,07,23,11,09,27.30
2006,07,23,11,10,27.30
2006,07,23,11,11,27.30
2006,07,23,11,12,27.30
2006,07,23,11,13,27.30
2006,07,23,11,14,27.30
2006,07,23,11,15,27.30
2006,07,23,11,16,27.30
2006,07,23,11,17,27.30
2006,07,23,11,18,27.30
2006,07,23,11,19,27.40
2006,07,23,11,20,27.50
2006,07,23,11,21,27.60
2006,07,23,11,22,27.60
2006,07,23,11,23,27.50
2006,07,23,11,24,27.40
2006,07,23,11,25,27.40
2006,07,23,11,26,27.40
2006,07,23,11,27,27.40
2006,07,23,11,28,27.50
2006,07,23,11,29,27.60
2006,07,23,11,30,27.60
2006,07,23,11,31,27.60
2006,07,23,11,32,27.70
2006,07,23,11,33,27.70
2006,07,23,11,34,27.70
2006,07,23,11,35,27.80
2006,07,23,11,36,27.80
2006,07,23,11,37,27.90
2006,07,23,11,38,27.90
2006,07,23,11,39,28.00
2006,07,23,11,40,28.00
2006,07,23,11,41,28.10
2006,07,23,11,42,28.10
2006,07,23,11,43,28.10
2006,07,23,11,44,28.20
2006,07,23,11,45,28.20
2006,07,23,11,46,28.30
2006,07,23,11,47,28.30
2006,07,23,11,48,28.40
2006,07,23,11,49,28.40
2006,07,23,11,50,28.50
2006,07,23,11,51,28.60
2006,07,23,11,52,28.60
2006,07,23,11,53,28.60
2006,07,23,11,54,28.50
2006,07,23,11,55,28.40
2006,07,23,11,56,28.40
2006,07,23,11,57,28.40
2006,07,23,11,58,28.40
2006,07,23,11,59,28.50
2006,07,23,12,00,28.50
2006,07,23,12,01,28.40
2006,07,23,12,02,28.40
2006,07,23,12,03,28.40
2006,07,23,12,04,28.30
2006,07,23,12,05,28.30
2006,07,23,12,06,28.30
2006,07,23,12,07,28.30
2006,07,23,12,08,28.30
2006,07,23,12,09,28.30
2006,07,23,12,10,28.40
2006,07,23,12,11,28.40
2006,07,23,12,12,28.40
2006,07,23,12,13,28.40
2006,07,23,12,14,28.30
2006,07,23,12,15,28.20
2006,07,23,12,16,28.20
2006,07,23,12,17,28.20
2006,07,23,12,18,28.30
2006,07,23,12,19,28.30
2006,07,23,12,20,28.40
2006,07,23,12,21,28.60
2006,07,23,12,22,28.70
2006,07,23,12,23,28.80
2006,07,23,12,24,28.90
2006,07,23,12,25,28.80
2006,07,23,12,26,28.80
2006,07,23,12,27,28.80
2006,07,23,12,28,28.80
2006,07,23,12,29,28.80
2006,07,23,12,30,28.70
2006,07,23,12,31,28.70
2006,07,23,12,32,28.70
2006,07,23,12,33,28.70
2006,07,23,12,34,28.70
2006,07,23,12,35,28.70
2006,07,23,12,36,28.70
2006,07,23,12,37,28.90
2006,07,23,12,38,28.90
2006,07,23,12,39,28.90
2006,07,23,12,40,28.90
2006,07,23,12,41,28.90
2006,07,23,12,42,28.90
2006,07,23,12,43,28.90
2006,07,23,12,44,28.90
2006,07,23,12,45,28.90
2006,07,23,12,46,28.90
2006,07,23,12,47,28.90
2006,07,23,12,48,28.90
2006,07,23,12,49,28.90
2006,07,23,12,50,28.90
2006,07,23,12,51,28.90
2006,07,23,12,52,29.00
2006,07,23,12,53,29.10
2006,07,23,12,54,29.20
2006,07,23,12,55,29.30
2006,07,23,12,56,29.30
2006,07,23,12,57,29.30
2006,07,23,12,58,29.40
2006,07,23,12,59,29.50
2006,07,23,13,00,29.50
2006,07,23,13,01,29.60
2006,07,23,13,02,29.60
2006,07,23,13,03,29.60
2006,07,23,13,04,29.60
2006,07,23,13,05,29.60
2006,07,23,13,06,29.60
2006,07,23,13,07,29.60
2006,07,23,13,08,29.60
2006,07,23,13,09,29.60
2006,07,23,13,10,29.50
2006,07,23,13,11,29.40
2006,07,23,13,12,29.40
2006,07,23,13,13,29.40
2006,07,23,13,14,29.40
2006,07,23,13,15,29.40
2006,07,23,13,16,29.50
2006,07,23,13,17,29.50
2006,07,23,13,18,29.50
2006,07,23,13,19,29.60
2006,07,23,13,20,29.60
2006,07,23,13,21,29.70
2006,07,23,13,22,29.70
2006,07,23,13,23,29.80
2006,07,23,13,24,29.80
2006,07,23,13,25,29.80
2006,07,23,13,26,29.80
2006,07,23,13,27,29.90
2006,07,23,13,28,29.90
2006,07,23,13,29,29.90
2006,07,23,13,30,29.90
2006,07,23,13,31,29.90
2006,07,23,13,32,29.90
2006,07,23,13,33,30.00
2006,07,23,13,34,30.10
2006,07,23,13,35,30.10
2006,07,23,13,36,30.20
2006,07,23,13,37,30.20
2006,07,23,13,38,30.20
2006,07,23,13,39,30.30
2006,07,23,13,40,30.30
2006,07,23,13,41,30.30
2006,07,23,13,42,30.30
2006,07,23,13,43,30.40
2006,07,23,13,44,30.40
2006,07,23,13,45,30.40
2006,07,23,13,46,30.50
2006,07,23,13,47,30.60
2006,07,23,13,48,30.40
2006,07,23,13,49,30.40
2006,07,23,13,50,30.40
2006,07,23,13,51,30.40
2006,07,23,13,52,30.40
2006,07,23,13,53,30.40
2006,07,23,13,54,30.50
2006,07,23,13,55,30.60
2006,07,23,13,56,30.50
2006,07,23,13,57,30.40
2006,07,23,13,58,30.30
2006,07,23,13,59,30.30
2006,07,23,14,00,30.30
2006,07,23,14,01,30.30
2006,07,23,14,02,30.30
2006,07,23,14,03,30.30
2006,07,23,14,04,30.20
2006,07,23,14,05,30.20
2006,07,23,14,06,30.20
2006,07,23,14,07,30.20
2006,07,23,14,08,30.00
2006,07,23,14,09,29.90
2006,07,23,14,10,29.80
2006,07,23,14,11,29.60
2006,07,23,14,12,29.60
2006,07,23,14,13,29.50
2006,07,23,14,14,29.50
2006,07,23,14,15,29.60
2006,07,23,14,16,29.60
2006,07,23,14,17,29.60
2006,07,23,14,18,29.60
2006,07,23,14,19,29.60
2006,07,23,14,20,29.60
2006,07,23,14,21,29.70
2006,07,23,14,22,29.70
2006,07,23,14,23,29.70
2006,07,23,14,24,29.70
2006,07,23,14,25,29.80
2006,07,23,14,26,29.90
2006,07,23,14,27,30.00
2006,07,23,14,28,30.10
2006,07,23,14,29,30.20
2006,07,23,14,30,30.30
2006,07,23,14,31,30.30
2006,07,23,14,32,30.30
2006,07,23,14,33,30.40
2006,07,23,14,34,30.50
2006,07,23,14,35,30.60
2006,07,23,14,36,30.60
2006,07,23,14,37,30.70
2006,07,23,14,38,30.70
2006,07,23,14,39,30.60
2006,07,23,14,40,30.60
2006,07,23,14,41,30.40
2006,07,23,14,42,30.30
2006,07,23,14,43,30.40
2006,07,23,14,44,30.50
2006,07,23,14,45,30.60
2006,07,23,14,46,30.70
2006,07,23,14,47,30.80
2006,07,23,14,48,30.90
2006,07,23,14,49,30.90
2006,07,23,14,50,31.00
2006,07,23,14,51,31.00
2006,07,23,14,52,30.90
2006,07,23,14,53,30.90
2006,07,23,14,54,30.90
2006,07,23,14,55,30.80
2006,07,23,14,56,30.80
2006,07,23,14,57,30.80
2006,07,23,14,58,30.80
2006,07,23,14,59,30.70
2006,07,23,15,00,30.70
2006,07,23,15,01,30.70
2006,07,23,15,02,30.80
2006,07,23,15,03,30.80
2006,07,23,15,04,30.90
2006,07,23,15,05,30.90
2006,07,23,15,06,30.90
2006,07,23,15,07,30.90
2006,07,23,15,08,31.00
2006,07,23,15,09,31.10
2006,07,23,15,10,31.20
2006,07,23,15,11,31.30
2006,07,23,15,12,31.40
2006,07,23,15,13,31.60
2006,07,23,15,14,31.70
2006,07,23,15,15,31.70
2006,07,23,15,16,31.80
2006,07,23,15,17,31.80
2006,07,23,15,18,31.80
2006,07,23,15,19,31.80
2006,07,23,15,20,31.80
2006,07,23,15,21,31.80
2006,07,23,15,22,31.80
2006,07,23,15,23,31.80
2006,07,23,15,24,31.70
2006,07,23,15,25,31.70
2006,07,23,15,26,31.70
2006,07,23,15,27,31.80
2006,07,23,15,28,31.80
2006,07,23,15,29,31.90
2006,07,23,15,30,31.90
2006,07,23,15,31,31.90
2006,07,23,15,32,31.90
2006,07,23,15,33,32.00
2006,07,23,15,34,32.10
2006,07,23,15,35,32.10
2006,07,23,15,36,32.10
2006,07,23,15,37,32.10
2006,07,23,15,38,32.10
2006,07,23,15,39,32.20
2006,07,23,15,40,32.20
2006,07,23,15,41,32.20
2006,07,23,15,42,32.20
2006,07,23,15,43,32.20
2006,07,23,15,44,32.30
2006,07,23,15,45,32.40
2006,07,23,15,46,32.40
2006,07,23,15,47,32.40
2006,07,23,15,48,32.30
2006,07,23,15,49,32.30
2006,07,23,15,50,32.30
2006,07,23,15,51,32.20
2006,07,23,15,52,32.20
2006,07,23,15,53,32.10
2006,07,23,15,54,32.10
2006,07,23,15,55,32.00
2006,07,23,15,56,31.90
2006,07,23,15,57,31.90
2006,07,23,15,58,31.90
2006,07,23,15,59,31.80
2006,07,23,16,00,31.80
2006,07,23,16,01,31.80
2006,07,23,16,02,31.80
2006,07,23,16,03,31.80
2006,07,23,16,04,31.80
2006,07,23,16,05,31.80
2006,07,23,16,06,31.70
2006,07,23,16,07,31.70
2006,07,23,16,08,31.70
2006,07,23,16,09,31.80
2006,07,23,16,10,31.80
2006,07,23,16,11,31.80
2006,07,23,16,12,31.80
2006,07,23,16,13,31.70
2006,07,23,16,14,31.70
2006,07,23,16,15,31.70
2006,07,23,16,16,31.70
2006,07,23,16,17,31.80
2006,07,23,16,18,31.80
2006,07,23,16,19,31.80
2006,07,23,16,20,31.90
2006,07,23,16,21,31.90
2006,07,23,16,22,32.10
2006,07,23,16,23,32.20
2006,07,23,16,24,32.30
2006,07,23,16,25,32.30
2006,07,23,16,26,32.30
2006,07,23,16,27,32.30
2006,07,23,16,28,32.30
2006,07,23,16,29,32.30
2006,07,23,16,30,32.30
2006,07,23,16,31,32.30
2006,07,23,16,32,32.40
2006,07,23,16,33,32.30
2006,07,23,16,34,32.20
2006,07,23,16,35,32.20
2006,07,23,16,36,32.20
2006,07,23,16,37,32.20
2006,07,23,16,38,32.20
2006,07,23,16,39,32.20
2006,07,23,16,40,32.10
2006,07,23,16,41,32.10
2006,07,23,16,42,32.10
2006,07,23,16,43,32.10
2006,07,23,16,44,32.00
2006,07,23,16,45,31.90
2006,07,23,16,46,31.90
2006,07,23,16,47,31.90
2006,07,23,16,48,31.80
2006,07,23,16,49,31.80
2006,07,23,16,50,31.80
2006,07,23,16,51,31.80
2006,07,23,16,52,31.70
2006,07,23,16,53,31.70
2006,07,23,16,54,31.70
2006,07,23,16,55,31.70
2006,07,23,16,56,31.70
2006,07,23,16,57,31.60
2006,07,23,16,58,31.60
2006,07,23,16,59,31.60
2006,07,23,17,00,31.60
2006,07,23,17,01,31.70
2006,07,23,17,02,31.70
2006,07,23,17,03,31.80
2006,07,23,17,04,31.90
2006,07,23,17,05,31.90
2006,07,23,17,06,31.90
2006,07,23,17,07,31.90
2006,07,23,17,08,31.90
2006,07,23,17,09,32.00
2006,07,23,17,10,32.10
2006,07,23,17,11,32.20
2006,07,23,17,12,32.20
2006,07,23,17,13,32.20
2006,07,23,17,14,32.30
2006,07,23,17,15,32.30
2006,07,23,17,16,32.40
2006,07,23,17,17,32.40
2006,07,23,17,18,32.40
2006,07,23,17,19,32.40